Weather in Sabinka

Russia / Republic of Khakassia     53°05′22″N   91°10′39″E
temp.,
°C
wind,
m/s
gust,
m/s
humid.,
%
clouds,
%
prec.,
mm/h
press.,
hPa
HPBL,
m
22 april, thu
thu2201:00−4n1165100 0.0 102680
04:00−5wnw1167100 0.0 102841
07:00−4nnw1162100 0.0 1030270
10:00−1n234680 0.0 10311215
13:00+1n333599 0.0 10312093
16:00+2n2233100 0.0 10322081
19:00+1n234257 0.0 1034245
22:00−2w126999 0.0 103730
23 april, fri
fri2301:00−3w1289100 0.2 1038123
04:00−4nw1182100 0.1 103886
07:00−4nnw1175100 0.1 1039285
10:00−1n2357100 0.0 1039900
13:00+2n2346100 0.0 10371274
16:00+3nne234398 0.0 10351323
19:00+2ne125175 0.0 1035164
22:00−2ssw226494 0.0 103521
24 april, sat
sat2401:00−2sw226585 0.0 103436
04:00−3wsw228190 0.0 103342
07:00−2nw1287100 0.2 1032331
10:000nw226699 0.3 1031951
13:00+2nw2258100 0.4 10291177
16:00+4nw2350100 0.1 10281457
19:00+2n126292 0.2 102888
22:00−1ssw1197100 1.5 103078
25 april, sun
sun2501:00−1wsw2697100 4.9 1030474
04:00−2sw2595100 0.6 1031315
07:00−1sw388697 0.7 1031513
10:00+1w4669100 0.3 10311297
13:00+3w3566100 1.0 10301243
16:00+3w3465100 1.1 10301122
19:00+2wsw2378100 1.7 1030441
22:00−1s229195 0.1 103233
26 april, mon
mon2601:00−1ssw219098 0.1 103231
04:00−3ssw219798 0.2 103324
07:00−1ssw128514 0.2 103373
10:00+4n116648 0.0 1031955
13:00+6nne225783 0.1 10291448
16:00+7nne225266 0.1 10281477
19:00+5ne24675 0.1 1028137
22:000s22884 0.0 103019